Weather History for Muscle Shoals, AL

Change the Weather History Date:

Monday, December 17, 2012

  Actual Average Record
Temperature  
Mean Temperature 55 °F 43 °F  
Max Temperature 66 °F 52 °F 75 °F (1933)
Min Temperature 44 °F 33 °F 1 °F (1914)
Degree Days  
Heating Degree Days 10 22  
Month to date heating degree days 171 347  
Since 1 July heating degree days 791 909  
Cooling Degree Days 0 0  
Month to date cooling degree days 2 0  
Year to date cooling degree days 2165 1871  
Growing Degree Days 5 (Base 50)    
Moisture  
Dew Point 52 °F    
Average Humidity 78    
Maximum Humidity 93    
Minimum Humidity 63    
Precipitation  
Precipitation T in 0.18 in 2.53 in (1961)
Month to date precipitation 2.55 3.41  
Year to date precipitation 40.11 50.93  
Snow  
Snow 0.00 in - - ()
Month to date snowfall 0.0  
Since 1 July snowfall 0.0  
Snow Depth 0.00 in    
Sea Level Pressure  
Sea Level Pressure 29.75 in    
Wind  
Wind Speed 9 mph (SW)    
Max Wind Speed 18 mph    
Max Gust Speed 24 mph    
Visibility 9 miles    
Events Rain    
T = Trace of Precipitation, MM = Missing Value Source: NWS Daily Summary

Daily Weather History Graph

Daily Weather History Graph

Search for Another Location

Airport:

Trip Planner

Search our weather history database for the weather conditions in past years. The results will help you decide how hot, cold, wet, or windy it might be!

Date:

Astronomy

Dec. 17, 2012 Rise Set
Actual Time 6:51 AM CST 4:41 PM CST
Civil Twilight 6:23 AM CST 5:09 PM CST
Nautical Twilight 5:52 AM CST 5:41 PM CST
Astronomical Twilight 5:21 AM CST 6:12 PM CST
Moon 10:10 AM CST 9:51 PM CST
Length of Visible Light 10h 45m
Length of Day
9h 49m
Waxing Crescent, 25% of the Moon is Illuminated
Dec 17
Waxing Crescent
Dec 19
First Quarter
Dec 28
Full
Jan 4
Last Quarter
Jan 11
New

Hourly Weather History & Observations

Time (CST) Temp. Windchill Dew Point Humidity Pressure Visibility Wind Dir Wind Speed Gust Speed Precip Events Conditions
12:53 AM 59.0 °F - 54.0 °F 83% 29.79 in 10.0 mi South 8.1 mph - N/A   Overcast
1:53 AM 57.9 °F - 55.0 °F 90% 29.79 in 9.0 mi SSW 8.1 mph - N/A   Overcast
2:53 AM 57.9 °F - 55.0 °F 90% 29.78 in 7.0 mi SSW 10.4 mph - N/A   Overcast
3:53 AM 57.9 °F - 55.0 °F 90% 29.77 in 5.0 mi South 8.1 mph - N/A   Overcast
4:25 AM 57.2 °F - 55.4 °F 94% 29.77 in 8.0 mi South 6.9 mph - N/A   Overcast
4:53 AM 57.9 °F - 55.0 °F 90% 29.76 in 8.0 mi South 8.1 mph - N/A   Overcast
5:15 AM 57.2 °F - 55.4 °F 94% 29.76 in 9.0 mi South 6.9 mph - N/A   Overcast
5:23 AM 57.2 °F - 55.4 °F 94% 29.76 in 10.0 mi South 6.9 mph - N/A   Overcast
5:53 AM 57.9 °F - 55.0 °F 90% 29.75 in 10.0 mi South 6.9 mph - 0.00 in   Overcast
6:05 AM 57.2 °F - 55.4 °F 94% 29.76 in 10.0 mi SW 4.6 mph - N/A   Overcast
6:17 AM 57.2 °F - 55.4 °F 94% 29.75 in 10.0 mi SSW 4.6 mph - N/A   Overcast
6:32 AM 57.2 °F - 55.4 °F 94% 29.75 in 10.0 mi South 4.6 mph - N/A   Overcast
6:53 AM 57.9 °F - 55.0 °F 90% 29.75 in 10.0 mi SSW 5.8 mph - N/A   Overcast
7:15 AM 57.2 °F - 55.4 °F 94% 29.75 in 4.0 mi Calm Calm - 0.00 in Rain Light Rain
7:18 AM 57.2 °F - 55.4 °F 94% 29.75 in 2.5 mi Calm Calm - 0.00 in Rain Light Rain
7:31 AM 57.2 °F - 55.4 °F 94% 29.75 in 4.0 mi South 3.5 mph - 0.00 in   Overcast
7:53 AM 57.9 °F - 55.0 °F 90% 29.75 in 9.0 mi SSW 4.6 mph - 0.00 in   Scattered Clouds
8:02 AM 57.2 °F - 55.4 °F 94% 29.75 in 9.0 mi SSW 4.6 mph - N/A   Mostly Cloudy
8:53 AM 59.0 °F - 55.9 °F 90% 29.75 in 10.0 mi West 4.6 mph - N/A   Overcast
9:53 AM 60.1 °F - 55.9 °F 86% 29.74 in 10.0 mi SSW 4.6 mph - N/A   Mostly Cloudy
10:53 AM 61.0 °F - 55.0 °F 81% 29.73 in 10.0 mi SW 9.2 mph - N/A   Mostly Cloudy
11:53 AM 61.0 °F - 54.0 °F 78% 29.70 in 10.0 mi WSW 9.2 mph - N/A   Overcast
12:44 PM 64.4 °F - 53.6 °F 68% 29.68 in 10.0 mi SW 13.8 mph 18.4 mph N/A   Scattered Clouds
12:53 PM 64.0 °F - 54.0 °F 70% 29.67 in 10.0 mi SW 9.2 mph - N/A   Mostly Cloudy
1:29 PM 64.4 °F - 53.6 °F 68% 29.67 in 10.0 mi WSW 11.5 mph - N/A   Mostly Cloudy
1:53 PM 64.0 °F - 53.1 °F 67% 29.65 in 10.0 mi WSW 8.1 mph - N/A   Mostly Cloudy
2:53 PM 64.9 °F - 51.1 °F 61% 29.65 in 10.0 mi SW 11.5 mph - N/A   Partly Cloudy
3:53 PM 64.0 °F - 51.1 °F 63% 29.65 in 10.0 mi SW 8.1 mph - N/A   Clear
6:53 PM 57.9 °F - 50.0 °F 75% 29.71 in 10.0 mi WSW 8.1 mph - N/A   Clear
7:53 PM 57.0 °F - 48.0 °F 72% 29.73 in 10.0 mi WNW 18.4 mph - N/A   Clear
8:53 PM 51.1 °F - 44.1 °F 77% 29.76 in 10.0 mi WNW 12.7 mph - N/A   Clear
9:53 PM 48.9 °F - 43.0 °F 80% 29.80 in 10.0 mi WNW 12.7 mph - N/A   Mostly Cloudy
10:39 PM 46.4 °F 40.4 °F 39.2 °F 76% 29.83 in 10.0 mi NW 13.8 mph - N/A   Mostly Cloudy
10:53 PM 46.9 °F - 39.0 °F 74% 29.84 in 10.0 mi NW 11.5 mph - N/A   Scattered Clouds
11:53 PM 44.1 °F 40.1 °F 37.9 °F 79% 29.86 in 10.0 mi NW 6.9 mph - N/A   Clear